QPF
0.00 0.00 0.00 0.00 0.00 0.00 0.00 0.00 0.00 0.00 0.00 0.00 0.00 0.00 0.00 0.00 0.00 0.00 0.09 0.04 0.00 0.00 0.00 0.00 0.00 0.00 0.00 0.00 0.00 0.00 0.00 0.00 0.00 0.00 0.00 0.00 0.00 0.00 0.00 0.00 0.00 0.00 0.03 0.00
0.00 0.00 0.00 0.00 0.00 0.00 0.00 0.00 0.00 0.00 0.00 0.00 0.00 0.00 0.00 0.00 0.00 0.01 0.05 0.16 0.07 0.00 0.00 0.00 0.00 0.00 0.00 0.00 0.00 0.00 0.00 0.03 0.00 0.00 0.00 0.00 0.00 0.00 0.00 0.00 0.00 0.00 0.00 0.01
0.00 0.00 0.00 0.00 0.00 0.00 0.00 0.00 0.00 0.00 0.00 0.00 0.00 0.00 0.00 0.00 0.00 0.00 0.00 0.00 0.01 0.00 0.00 0.00 0.00 0.00 0.00 0.00 0.00 0.00 0.03 0.04 0.01 0.00 0.00 0.00 0.00 0.00 0.00 0.00 0.00 0.00 0.00 0.00
0.00 0.00 0.00 0.00 0.00 0.00 0.00 0.00 0.00 0.00 0.00 0.00 0.00 0.00 0.00 0.00 0.00 0.01 0.00 0.00 0.00 0.00 0.00 0.00 0.00 0.00 0.00 0.00 0.00 0.02 0.08 0.03 0.01 0.00 0.00 0.00 0.00 0.00 0.00 0.00 0.01 0.01 0.00 0.00
0.00 0.00 0.00 0.00 0.00 0.00 0.00 0.00 0.00 0.00 0.00 0.00 0.00 0.00 0.00 0.00 0.00 0.00 0.00 0.00 0.00 0.00 0.00 0.00 0.00 0.00 0.00 0.00 0.00 0.06 0.09 0.02 0.00 0.00 0.00 0.00 0.00 0.00 0.00 0.00 0.02 0.02 0.01 0.01
0.00 0.00 0.00 0.00 0.00 0.00 0.00 0.00 0.00 0.00 0.00 0.00 0.00 0.00 0.00 0.00 0.00 0.00 0.01 0.00 0.00 0.00 0.00 0.00 0.00 0.00 0.00 0.00 0.00 0.08 0.07 0.00 0.03 0.06 0.00 0.00 0.00 0.00 0.02 0.03 0.03 0.01 0.00 0.01
0.00 0.00 0.00 0.00 0.00 0.00 0.00 0.00 0.00 0.00 0.00 0.00 0.00 0.00 0.00 0.00 0.00 0.00 0.00 0.00 0.00 0.00 0.00 0.00 0.00 0.00 0.00 0.00 0.00 0.09 0.07 0.00 0.04 0.03 0.00 0.00 0.02 0.08 0.14 0.14 0.03 0.00 0.00 0.01
0.00 0.00 0.00 0.00 0.00 0.00 0.00 0.00 0.00 0.00 0.00 0.00 0.00 0.00 0.00 0.00 0.00 0.00 0.00 0.00 0.00 0.00 0.12 0.23 0.01 0.00 0.00 0.00 0.00 0.07 0.12 0.01 0.06 0.00 0.00 0.01 0.10 0.13 0.15 0.19 0.09 0.03 0.00 0.00
0.00 0.00 0.00 0.00 0.00 0.00 0.00 0.00 0.00 0.00 0.00 0.00 0.00 0.00 0.00 0.00 0.00 0.00 0.00 0.00 0.00 0.00 0.00 0.01 0.00 0.00 0.02 0.03 0.00 0.02 0.13 0.02 0.06 0.01 0.00 0.04 0.15 0.09 0.30 0.47 0.15 0.01 0.00 0.00
0.00 0.00 0.00 0.00 0.00 0.00 0.00 0.00 0.00 0.00 0.00 0.00 0.00 0.00 0.00 0.00 0.00 0.00 0.00 0.00 0.00 0.00 0.00 0.00 0.00 0.00 0.03 0.01 0.00 0.03 0.03 0.03 0.04 0.00 0.00 0.04 0.11 0.13 0.30 0.30 0.15 0.03 0.00 0.00
0.00 0.00 0.00 0.00 0.00 0.00 0.00 0.00 0.00 0.00 0.00 0.00 0.00 0.00 0.00 0.00 0.05 0.14 0.10 0.03 0.00 0.00 0.00 0.00 0.00 0.00 0.00 0.00 0.07 0.07 0.02 0.02 0.00 0.01 0.02 0.02 0.07 0.38 0.12 0.08 0.02 0.00 0.00 0.00
0.00 0.00 0.00 0.00 0.00 0.00 0.00 0.00 0.00 0.00 0.00 0.00 0.00 0.00 0.00 0.01 0.08 0.04 0.12 0.07 0.00 0.00 0.00 0.00 0.00 0.00 0.00 0.05 0.07 0.09 0.10 0.01 0.00 0.00 0.00 0.00 0.00 0.01 0.00 0.00 0.00 0.00 0.00 0.00
0.00 0.00 0.00 0.00 0.00 0.00 0.00 0.00 0.00 0.00 0.00 0.00 0.00 0.00 0.00 0.01 0.13 0.69 0.20 0.04 0.00 0.00 0.00 0.00 0.00 0.00 0.01 0.05 0.06 0.11 0.17 0.02 0.00 0.00 0.00 0.00 0.00 0.00 0.00 0.00 0.00 0.00 0.00 0.00
0.00 0.00 0.00 0.00 0.00 0.00 0.00 0.00 0.00 0.00 0.00 0.00 0.00 0.00 0.00 0.00 0.17 0.48 0.13 0.01 0.00 0.00 0.00 0.00 0.00 0.00 0.03 0.05 0.14 0.20 0.07 0.00 0.00 0.00 0.00 0.00 0.00 0.00 0.00 0.00 0.00 0.00 0.00 0.00
0.00 0.00 0.00 0.00 0.00 0.00 0.00 0.00 0.00 0.00 0.00 0.00 0.01 0.00 0.00 0.01 0.03 0.05 0.07 0.05 0.01 0.00 0.00 0.00 0.00 0.00 0.03 0.07 0.16 0.16 0.05 0.00 0.00 0.00 0.00 0.00 0.00 0.00 0.00 0.00 0.00 0.00 0.00 0.00
0.00 0.00 0.00 0.00 0.00 0.00 0.00 0.00 0.00 0.00 0.00 0.00 0.00 0.00 0.00 0.00 0.00 0.03 0.01 0.01 0.00 0.00 0.00 0.00 0.00 0.02 0.03 0.07 0.09 0.07 0.01 0.00 0.00 0.00 0.00 0.00 0.00 0.00 0.00 0.00 0.00 0.00 0.00 0.00
0.00 0.00 0.00 0.00 0.00 0.00 0.00 0.00 0.00 0.00 0.00 0.00 0.00 0.00 0.00 0.00 0.01 0.00 0.00 0.00 0.00 0.00 0.00 0.00 0.00 0.00 0.01 0.03 0.05 0.07 0.06 0.00 0.00 0.00 0.00 0.00 0.00 0.00 0.00 0.00 0.00 0.01 0.02 0.00
0.00 0.00 0.00 0.00 0.00 0.00 0.00 0.00 0.00 0.00 0.00 0.00 0.00 0.00 0.00 0.01 0.00 0.00 0.00 0.00 0.00 0.00 0.00 0.00 0.00 0.00 0.00 0.00 0.00 0.01 0.05 0.00 0.00 0.00 0.00 0.00 0.00 0.00 0.00 0.00 0.01 0.11 0.19 0.10
0.00 0.00 0.00 0.00 0.00 0.00 0.00 0.00 0.00 0.00 0.00 0.00 0.00 0.00 0.01 0.02 0.02 0.00 0.00 0.00 0.00 0.00 0.00 0.00 0.00 0.00 0.00 0.00 0.00 0.00 0.03 0.01 0.00 0.00 0.00 0.00 0.00 0.01 0.01 0.00 0.00 0.03 0.08 0.07
0.00 0.00 0.00 0.00 0.00 0.00 0.00 0.00 0.00 0.00 0.00 0.00 0.00 0.00 0.03 0.05 0.03 0.00 0.00 0.00 0.00 0.00 0.00 0.00 0.00 0.00 0.00 0.00 0.00 0.02 0.01 0.00 0.00 0.00 0.00 0.01 0.01 0.03 0.01 0.00 0.00 0.00 0.00 0.00
0.00 0.00 0.00 0.00 0.00 0.00 0.00 0.00 0.00 0.00 0.00 0.04 0.07 0.02 0.00 0.00 0.00 0.00 0.00 0.00 0.00 0.00 0.00 0.00 0.00 0.00 0.00 0.00 0.00 0.03 0.02 0.04 0.00 0.00 0.00 0.00 0.00 0.03 0.01 0.00 0.00 0.00 0.00 0.00
0.00 0.00 0.00 0.00 0.00 0.00 0.00 0.00 0.00 0.00 0.00 0.02 0.21 0.18 0.10 0.01 0.01 0.00 0.00 0.00 0.00 0.00 0.00 0.00 0.00 0.00 0.00 0.01 0.00 0.00 0.00 0.05 0.04 0.00 0.01 0.00 0.01 0.01 0.01 0.05 0.05 0.04 0.01 0.00
0.00 0.00 0.00 0.01 0.00 0.00 0.00 0.03 0.05 0.09 0.02 0.01 0.09 0.59 0.62 0.16 0.08 0.02 0.00 0.00 0.00 0.00 0.00 0.00 0.00 0.00 0.01 0.03 0.02 0.01 0.03 0.12 0.06 0.03 0.06 0.01 0.01 0.01 0.02 0.02 0.01 0.06 0.04 0.01
0.00 0.01 0.00 0.07 0.05 0.00 0.00 0.02 0.07 0.32 0.45 0.15 0.08 0.24 0.71 0.43 0.15 0.02 0.00 0.00 0.00 0.00 0.00 0.00 0.00 0.00 0.01 0.04 0.06 0.08 0.14 0.12 0.08 0.09 0.08 0.09 0.04 0.02 0.00 0.01 0.02 0.03 0.02 0.02
0.00 0.00 0.00 0.01 0.08 0.08 0.03 0.16 0.11 0.04 0.15 0.11 0.03 0.02 0.19 0.45 0.07 0.00 0.02 0.01 0.00 0.00 0.00 0.00 0.00 0.00 0.00 0.01 0.01 0.02 0.03 0.01 0.02 0.02 0.00 0.01 0.01 0.01 0.00 0.00 0.01 0.02 0.04 0.07
0.00 0.00 0.00 0.02 0.19 0.43 0.46 0.35 0.25 0.16 0.04 0.00 0.00 0.00 0.01 0.04 0.07 0.05 0.02 0.01 0.00 0.00 0.00 0.00 0.00 0.00 0.00 0.00 0.00 0.00 0.00 0.00 0.00 0.00 0.00 0.00 0.00 0.00 0.00 0.00 0.03 0.04 0.01 0.01
MSLP
1003.38 1004.05 1003.99 1004.06 1003.78 1003.93 1004.06 1004.19 1004.84 1004.63 1002.58 1003.78 1003.41 1003.38 1003.64 1004.56 1005.41 1006.13 1008.61 1008.41 1008.28 1008.59 1007.94 1008.06 1008.34 1008.95 1009.74 1010.21 1010.97 1011.62 1012.28 1012.79 1013.21 1013.66 1014.13 1014.44 1014.78 1015.01 1015.00 1015.09 1014.90 1014.76 1015.11 1015.26
1003.85 1003.75 1003.33 1003.15 1002.98 1003.08 1003.81 1004.22 1004.85 1004.30 1003.46 1004.11 1003.21 1003.13 1002.67 1004.50 1006.34 1008.05 1007.98 1007.07 1006.17 1007.30 1007.61 1007.75 1008.18 1008.77 1009.34 1009.95 1010.54 1011.39 1012.19 1013.07 1013.21 1013.45 1013.76 1013.98 1014.30 1014.55 1014.68 1014.50 1014.51 1014.50 1014.68 1014.94
1003.58 1002.72 1002.24 1002.29 1002.25 1002.35 1002.77 1003.51 1003.64 1003.30 1003.54 1003.53 1003.47 1003.40 1004.14 1005.08 1003.59 1004.77 1005.99 1005.18 1005.38 1006.14 1006.90 1007.15 1007.70 1008.30 1008.89 1009.52 1010.34 1011.22 1011.97 1012.48 1012.89 1013.38 1013.70 1014.05 1014.23 1014.40 1014.69 1014.64 1014.49 1014.27 1014.06 1014.16
1002.78 1001.78 1001.52 1001.36 1001.34 1001.44 1001.94 1001.91 1002.14 1002.54 1003.91 1003.74 1002.92 1004.59 1004.75 1004.64 1004.51 1004.82 1005.28 1005.46 1004.71 1005.26 1006.12 1006.96 1007.77 1008.36 1008.68 1009.14 1009.97 1010.78 1011.58 1012.28 1012.77 1013.20 1013.79 1014.11 1014.31 1014.48 1014.39 1014.45 1014.44 1014.27 1013.90 1013.87
1002.24 1001.61 1001.19 1000.90 1000.74 1000.90 1001.40 1001.43 1002.05 1002.28 1002.98 1003.07 1003.39 1004.56 1005.30 1004.67 1004.43 1003.61 1003.52 1003.84 1004.63 1004.46 1005.63 1006.79 1007.31 1007.88 1008.36 1009.12 1009.72 1010.64 1011.47 1012.01 1012.69 1013.19 1013.53 1014.02 1014.24 1014.38 1014.17 1014.35 1014.58 1014.59 1014.32 1014.24
1002.06 1001.06 1000.99 1000.54 1000.41 1000.67 1001.30 1001.84 1002.38 1002.92 1003.94 1004.73 1004.79 1005.14 1005.09 1004.41 1003.50 1003.06 1003.15 1002.82 1003.02 1004.47 1005.72 1006.53 1007.00 1007.47 1007.96 1009.04 1010.09 1010.79 1011.53 1012.23 1012.82 1013.12 1013.58 1013.73 1014.03 1014.20 1014.52 1014.57 1014.73 1014.72 1014.82 1014.97
1002.25 1001.34 1000.66 1000.38 1000.53 1000.67 1001.37 1002.42 1003.67 1004.93 1005.51 1005.78 1004.98 1004.71 1004.14 1002.91 1002.72 1002.33 1002.61 1002.24 1003.22 1004.58 1006.07 1007.25 1007.37 1007.67 1008.03 1009.23 1010.38 1010.99 1011.74 1012.40 1013.08 1013.35 1013.52 1013.70 1013.77 1013.85 1014.18 1014.67 1014.90 1015.02 1015.29 1015.58
1002.90 1001.92 1000.80 1000.45 1000.58 1001.11 1001.71 1002.68 1004.02 1005.33 1006.28 1005.96 1005.35 1004.99 1003.71 1002.89 1002.99 1002.51 1002.11 1002.30 1003.51 1005.92 1007.36 1009.16 1008.88 1007.84 1008.43 1009.43 1010.48 1011.02 1012.03 1012.59 1013.27 1013.45 1013.50 1013.61 1014.07 1014.33 1014.56 1014.58 1015.14 1015.58 1015.73 1015.60
1002.52 1001.76 1000.40 1000.08 1000.11 1000.74 1001.53 1002.14 1002.85 1004.85 1005.51 1006.52 1005.83 1005.37 1004.88 1004.05 1004.82 1003.81 1002.95 1002.87 1003.78 1005.43 1006.16 1006.76 1008.26 1008.14 1008.75 1009.47 1010.43 1010.95 1011.85 1012.42 1013.26 1013.46 1013.62 1014.29 1014.73 1014.81 1015.22 1015.68 1015.51 1015.84 1015.85 1015.66
1001.83 1002.14 1000.82 999.81 999.72 1000.17 1000.98 1001.83 1003.09 1004.65 1006.24 1007.02 1006.62 1006.48 1005.97 1006.05 1005.96 1004.88 1005.35 1004.04 1004.02 1004.73 1005.85 1006.65 1007.05 1007.85 1008.56 1008.83 1009.67 1010.24 1011.48 1012.46 1013.27 1013.79 1014.12 1014.53 1014.83 1015.39 1015.31 1015.73 1015.96 1016.05 1016.17 1015.86
1001.44 1002.07 1001.14 1000.71 1000.15 1000.48 1000.99 1001.64 1002.88 1004.26 1005.61 1006.76 1007.36 1007.01 1005.91 1006.43 1006.32 1005.82 1007.33 1006.76 1004.22 1004.74 1005.55 1006.10 1006.58 1007.26 1007.99 1008.69 1009.86 1011.16 1012.29 1012.94 1013.42 1014.02 1014.33 1014.58 1014.98 1015.13 1015.82 1015.81 1016.05 1016.15 1016.23 1016.08
1000.83 1001.69 1002.00 1001.38 1000.55 1000.31 1000.38 1001.29 1002.32 1004.31 1005.54 1006.49 1006.95 1006.15 1006.07 1008.79 1008.67 1008.46 1007.22 1008.89 1004.80 1004.34 1005.04 1005.45 1006.20 1006.53 1008.00 1009.79 1010.44 1011.15 1012.25 1012.87 1013.77 1014.40 1014.70 1014.90 1015.12 1015.13 1015.54 1015.81 1016.11 1016.25 1016.24 1016.22
1001.17 1001.73 1002.41 1002.11 1001.47 1000.47 1000.43 1000.86 1001.71 1003.03 1004.24 1005.68 1006.81 1007.15 1008.80 1009.78 1010.34 1010.49 1010.91 1009.92 1005.57 1004.97 1005.64 1006.10 1006.82 1006.91 1008.64 1009.92 1010.91 1011.88 1012.48 1013.32 1013.72 1014.45 1014.93 1015.13 1015.20 1015.34 1015.53 1015.83 1015.98 1016.19 1016.42 1016.42
1001.35 1002.43 1003.32 1003.07 1002.29 1001.48 1001.79 1001.11 1001.29 1002.80 1004.23 1005.15 1005.58 1007.39 1009.28 1009.91 1010.20 1010.78 1010.39 1006.93 1005.84 1006.26 1006.49 1007.22 1007.84 1007.82 1009.42 1010.64 1011.34 1012.12 1012.97 1013.34 1013.58 1014.24 1014.84 1015.09 1015.09 1015.23 1015.42 1015.73 1016.05 1016.18 1016.44 1016.61
1001.86 1003.02 1003.26 1003.02 1002.17 1001.72 1001.45 1001.35 1001.41 1002.03 1003.09 1004.47 1005.58 1006.36 1008.35 1008.26 1008.10 1009.92 1006.84 1006.03 1006.35 1006.60 1007.26 1007.19 1008.08 1008.77 1010.26 1011.41 1011.96 1012.22 1012.68 1013.19 1013.51 1014.20 1014.63 1014.84 1014.89 1015.12 1015.39 1015.73 1015.86 1015.97 1016.49 1016.60
1002.95 1003.65 1003.62 1003.68 1002.82 1002.25 1001.65 1001.08 1001.37 1001.78 1002.41 1003.96 1005.31 1005.94 1006.54 1007.25 1006.40 1006.53 1006.09 1006.88 1007.25 1007.36 1006.14 1007.03 1008.42 1009.18 1009.81 1011.06 1011.55 1012.34 1012.92 1013.09 1013.46 1014.09 1014.43 1014.34 1014.52 1014.77 1015.03 1015.34 1015.70 1016.12 1016.34 1016.40
1004.44 1004.48 1004.74 1004.57 1003.70 1003.04 1002.31 1001.38 1000.97 1001.32 1001.83 1002.31 1004.51 1005.15 1006.08 1006.68 1006.12 1006.22 1006.83 1006.97 1006.46 1006.16 1006.23 1007.29 1008.25 1008.94 1009.76 1010.66 1011.40 1012.18 1012.91 1013.03 1013.35 1013.67 1014.14 1014.21 1014.44 1014.94 1015.44 1015.82 1015.75 1016.08 1016.27 1016.22
1005.15 1005.49 1005.35 1005.52 1004.76 1003.94 1002.51 1001.40 1001.03 1001.11 1001.09 1001.16 1002.54 1003.98 1004.84 1005.72 1005.79 1005.80 1005.99 1006.49 1006.34 1006.53 1007.23 1007.88 1008.10 1008.67 1009.25 1009.64 1010.76 1011.72 1012.39 1012.85 1013.09 1013.50 1013.91 1014.19 1014.64 1015.03 1015.38 1015.61 1015.84 1016.09 1016.20 1016.71
1005.34 1005.86 1006.28 1006.26 1005.55 1004.49 1003.29 1002.18 1002.05 1001.57 1000.99 1001.43 1002.35 1004.16 1004.89 1005.76 1005.76 1006.52 1006.10 1006.10 1007.22 1007.67 1007.97 1008.26 1008.46 1008.79 1009.16 1009.59 1010.11 1011.11 1012.08 1012.55 1012.82 1013.16 1013.61 1014.10 1014.42 1014.96 1015.41 1015.63 1015.84 1016.07 1016.42 1016.72
1005.31 1005.64 1006.63 1006.85 1006.96 1005.69 1004.20 1003.44 1002.40 1001.61 1003.11 1003.77 1003.10 1004.19 1005.23 1005.38 1006.18 1006.70 1006.79 1006.68 1007.04 1007.68 1008.16 1008.15 1008.60 1008.74 1009.33 1010.04 1010.52 1011.00 1011.64 1012.14 1012.53 1012.80 1013.22 1013.74 1014.23 1014.80 1015.14 1015.28 1015.72 1015.90 1016.10 1016.49
1005.96 1006.47 1007.01 1007.31 1006.98 1006.08 1005.65 1004.82 1003.30 1004.35 1006.77 1005.94 1006.43 1006.82 1005.58 1005.05 1004.27 1005.44 1006.49 1007.19 1008.53 1008.91 1008.79 1008.40 1008.72 1009.19 1009.66 1010.07 1010.67 1011.13 1011.23 1011.79 1011.87 1012.29 1012.64 1013.34 1013.80 1014.28 1014.70 1015.03 1015.40 1015.77 1016.07 1016.35
1007.09 1007.72 1007.61 1007.70 1007.41 1007.52 1007.07 1005.89 1006.48 1008.61 1007.88 1006.37 1006.42 1008.37 1009.11 1007.88 1007.25 1006.33 1006.91 1007.94 1009.14 1009.83 1009.53 1009.21 1009.47 1010.08 1010.40 1010.65 1010.70 1011.08 1011.44 1011.64 1012.03 1012.00 1012.59 1013.00 1013.46 1013.95 1014.34 1014.79 1015.17 1015.50 1016.01 1016.35
1008.46 1009.10 1009.46 1009.45 1009.09 1008.69 1008.40 1008.88 1008.66 1009.70 1008.22 1007.55 1008.09 1009.29 1010.22 1010.71 1009.48 1007.98 1008.88 1008.91 1009.43 1009.85 1010.36 1009.96 1010.29 1010.74 1011.16 1011.38 1011.20 1011.28 1011.82 1011.88 1011.86 1012.08 1012.73 1013.20 1013.42 1013.78 1014.10 1014.66 1015.07 1015.64 1015.78 1016.28
1009.43 1009.48 1009.96 1010.20 1010.26 1010.37 1010.88 1010.22 1010.21 1008.94 1008.48 1007.70 1008.01 1009.45 1010.91 1010.47 1008.02 1008.05 1008.40 1008.87 1009.57 1009.84 1010.28 1010.38 1010.73 1011.28 1011.94 1012.09 1012.16 1012.17 1012.18 1012.32 1012.72 1012.98 1013.14 1013.47 1013.78 1014.35 1014.42 1014.71 1014.95 1015.43 1015.67 1015.91
1009.89 1010.11 1011.14 1011.14 1011.67 1010.88 1010.60 1011.17 1012.23 1011.57 1011.23 1008.12 1007.26 1008.33 1007.79 1008.80 1008.34 1007.78 1008.88 1009.85 1009.28 1009.62 1010.22 1010.52 1010.96 1011.79 1012.23 1012.50 1012.42 1012.65 1012.64 1012.66 1013.03 1013.20 1013.53 1013.93 1014.13 1014.61 1015.14 1015.70 1015.93 1015.93 1015.69 1015.58
1010.12 1011.02 1011.67 1012.05 1013.31 1013.27 1013.02 1012.35 1011.58 1012.23 1012.64 1010.52 1006.86 1006.19 1006.57 1006.71 1007.41 1008.36 1009.29 1010.16 1009.12 1009.26 1009.58 1010.59 1011.45 1011.98 1011.90 1012.42 1012.99 1013.17 1012.98 1013.05 1013.09 1013.41 1013.73 1014.03 1014.39 1014.90 1015.35 1015.81 1016.18 1016.31 1016.12 1015.76
Thickness
5840 5812 5800 5821 5837 5840 5832 5825 5818 5825 5869 5848 5847 5848 5859 5857 5853 5842 5812 5822 5836 5835 5845 5845 5844 5839 5829 5823 5813 5804 5796 5790 5784 5777 5768 5763 5757 5751 5747 5747 5750 5751 5749 5749
5816 5800 5833 5849 5853 5845 5834 5822 5815 5835 5856 5844 5849 5850 5872 5853 5839 5822 5818 5835 5851 5844 5844 5843 5839 5835 5829 5821 5816 5806 5796 5787 5783 5778 5773 5768 5763 5759 5753 5753 5754 5754 5754 5751
5803 5826 5854 5850 5845 5838 5841 5814 5825 5829 5844 5852 5844 5844 5845 5845 5866 5852 5848 5858 5856 5850 5845 5843 5837 5833 5831 5822 5815 5806 5799 5790 5785 5777 5772 5767 5763 5759 5752 5750 5752 5755 5758 5757
5819 5849 5846 5844 5839 5847 5822 5859 5856 5849 5820 5796 5857 5790 5827 5840 5846 5851 5852 5850 5851 5851 5848 5845 5837 5831 5830 5826 5818 5810 5801 5792 5785 5777 5769 5762 5756 5753 5754 5751 5750 5751 5754 5756
5812 5831 5832 5831 5841 5854 5832 5861 5851 5853 5834 5839 5833 5801 5817 5832 5830 5848 5861 5861 5850 5857 5853 5847 5842 5838 5834 5829 5820 5811 5802 5793 5783 5776 5770 5762 5757 5755 5758 5753 5748 5746 5751 5751
5825 5857 5847 5843 5856 5857 5860 5847 5841 5842 5821 5779 5814 5805 5798 5809 5831 5849 5852 5861 5868 5858 5855 5853 5850 5842 5837 5829 5817 5807 5797 5787 5780 5774 5766 5761 5755 5753 5749 5748 5745 5744 5742 5743
5813 5825 5848 5857 5834 5851 5844 5820 5764 5765 5763 5760 5812 5807 5808 5845 5850 5858 5854 5866 5868 5859 5851 5842 5839 5835 5833 5822 5811 5800 5795 5784 5775 5768 5764 5758 5754 5751 5747 5743 5740 5739 5737 5734
5772 5772 5827 5852 5836 5819 5818 5808 5760 5751 5754 5772 5823 5798 5819 5858 5866 5872 5874 5871 5865 5838 5823 5804 5816 5832 5828 5818 5809 5798 5789 5781 5772 5765 5760 5755 5747 5741 5731 5732 5730 5729 5730 5733
5779 5785 5846 5853 5855 5845 5817 5802 5829 5793 5804 5775 5788 5811 5835 5836 5820 5850 5865 5865 5855 5835 5831 5830 5823 5830 5824 5816 5808 5799 5787 5780 5769 5761 5755 5744 5734 5725 5714 5711 5720 5721 5725 5730
5806 5773 5825 5850 5857 5851 5833 5841 5795 5785 5761 5755 5780 5785 5788 5805 5811 5835 5827 5848 5852 5845 5835 5832 5833 5830 5823 5823 5815 5804 5789 5775 5765 5754 5747 5739 5731 5716 5709 5707 5711 5715 5718 5724
5817 5794 5808 5828 5824 5817 5819 5807 5816 5803 5788 5757 5746 5761 5809 5806 5813 5815 5800 5812 5846 5844 5841 5837 5836 5834 5830 5824 5809 5794 5781 5769 5760 5751 5745 5738 5729 5722 5710 5709 5711 5713 5715 5721
5826 5799 5776 5799 5835 5850 5841 5824 5815 5768 5771 5778 5765 5767 5821 5795 5798 5804 5799 5763 5845 5847 5846 5842 5838 5835 5825 5805 5799 5790 5778 5769 5756 5746 5740 5735 5730 5727 5720 5717 5714 5715 5717 5720
5817 5784 5761 5773 5802 5830 5822 5830 5828 5812 5799 5781 5760 5768 5786 5777 5767 5773 5768 5779 5831 5836 5835 5831 5826 5824 5812 5802 5793 5781 5769 5765 5756 5745 5738 5732 5729 5726 5724 5719 5719 5718 5716 5717
5814 5788 5769 5746 5778 5814 5795 5819 5828 5808 5773 5782 5784 5777 5763 5766 5765 5750 5756 5805 5819 5822 5822 5817 5810 5812 5800 5791 5787 5777 5766 5761 5755 5746 5739 5734 5731 5728 5725 5721 5717 5716 5714 5712
5800 5770 5785 5786 5804 5808 5807 5809 5815 5805 5798 5786 5785 5781 5768 5777 5784 5744 5800 5815 5815 5817 5808 5809 5806 5804 5791 5781 5778 5775 5767 5760 5755 5745 5739 5734 5732 5728 5723 5718 5716 5715 5709 5709
5785 5759 5786 5771 5797 5800 5794 5809 5812 5813 5809 5799 5787 5780 5799 5789 5805 5803 5810 5802 5801 5803 5813 5808 5803 5801 5792 5781 5778 5771 5764 5758 5753 5744 5738 5737 5733 5728 5721 5717 5713 5707 5706 5707
5761 5756 5753 5741 5777 5779 5761 5794 5807 5810 5812 5811 5775 5795 5787 5786 5799 5799 5798 5800 5807 5805 5808 5806 5804 5801 5792 5783 5775 5766 5759 5757 5752 5748 5741 5737 5732 5725 5715 5709 5708 5703 5702 5705
5748 5746 5750 5733 5756 5717 5776 5815 5820 5810 5818 5814 5807 5797 5797 5787 5793 5797 5803 5802 5807 5806 5802 5798 5801 5797 5795 5793 5782 5769 5761 5754 5751 5746 5741 5736 5730 5724 5718 5711 5705 5701 5698 5694
5754 5743 5729 5719 5723 5752 5774 5799 5795 5794 5796 5820 5806 5797 5795 5789 5795 5788 5800 5806 5797 5794 5793 5792 5795 5794 5792 5789 5786 5773 5759 5754 5750 5745 5740 5734 5729 5722 5716 5710 5703 5700 5695 5692
5755 5748 5727 5719 5708 5708 5760 5786 5807 5809 5760 5794 5802 5795 5782 5789 5769 5779 5794 5802 5797 5790 5787 5788 5790 5791 5786 5778 5775 5766 5757 5750 5747 5743 5739 5733 5726 5721 5715 5713 5706 5701 5698 5693
5726 5725 5715 5714 5712 5735 5755 5772 5796 5755 5730 5768 5759 5765 5775 5780 5801 5792 5793 5787 5777 5775 5778 5784 5781 5780 5779 5776 5768 5760 5756 5748 5748 5745 5740 5732 5726 5720 5717 5713 5708 5703 5698 5694
5711 5702 5709 5716 5713 5706 5742 5763 5751 5735 5740 5757 5757 5739 5718 5746 5763 5777 5778 5772 5765 5762 5766 5771 5768 5765 5765 5763 5763 5756 5750 5746 5743 5743 5736 5731 5725 5720 5717 5711 5706 5703 5696 5691
5682 5691 5688 5699 5698 5722 5735 5724 5733 5728 5736 5735 5727 5723 5706 5712 5727 5755 5757 5761 5757 5754 5754 5758 5758 5754 5750 5749 5750 5747 5740 5738 5736 5733 5729 5724 5720 5717 5713 5707 5703 5695 5694 5689
5689 5699 5692 5692 5702 5702 5693 5711 5710 5728 5735 5739 5735 5716 5689 5714 5725 5745 5757 5754 5750 5750 5749 5749 5745 5740 5734 5735 5735 5734 5733 5730 5725 5720 5718 5713 5710 5703 5702 5699 5697 5694 5691 5687
5682 5688 5675 5683 5679 5693 5698 5696 5683 5693 5697 5730 5740 5719 5721 5697 5725 5745 5740 5738 5744 5745 5741 5740 5735 5728 5725 5723 5724 5723 5721 5721 5715 5712 5708 5704 5701 5695 5688 5682 5679 5678 5680 5681
5682 5667 5661 5663 5654 5659 5665 5674 5685 5671 5665 5695 5738 5739 5731 5728 5729 5730 5723 5725 5734 5735 5736 5728 5724 5719 5720 5714 5707 5708 5710 5709 5707 5702 5698 5696 5693 5685 5679 5675 5670 5665 5664 5665